Terug naar catalogus

ONEWEB-0370

ActiefCommunicatiePO
NORAD 49296·PAYLOAD·🇬🇧 United Kingdom

Gelanceerd Oct 14, 2021 vanaf Vostochny Cosmodrome

Loading…

Volgende Passages (komende 24 uur)

TLE

VersSource: CelesTrak SupGP

Epoch: Sep 14, 2026, 23:03 UTC

1 49296C 21090T   26257.96095325  .00000695  00000+0  17109-2 0  2579
2 49296  87.9136 256.5317 0001729  91.8157 347.8017 13.20770541    16

Volg ONEWEB-0370 in realtime met AllMySat

Download on the App Store